Weather History for Crestview, FL

Change the Weather History Date:

Sunday, December 15, 2013

  Actual Average Record
Temperature  
Mean Temperature 45 °F -  
Max Temperature 57 °F - - ()
Min Temperature 31 °F - - ()
Degree Days  
Heating Degree Days 20    
Moisture  
Dew Point 36 °F    
Average Humidity 69    
Maximum Humidity 88    
Minimum Humidity 46    
Precipitation  
Precipitation 0.05 in - - ()
Sea Level Pressure  
Sea Level Pressure 30.10 in    
Wind  
Wind Speed 12 mph (NNW)    
Max Wind Speed 22 mph    
Max Gust Speed 26 mph    
Visibility 10 miles    
Events Rain    
T = Trace of Precipitation, MM = Missing Value Source: NWS Daily Summary

Daily Weather History Graph

Daily Weather History Graph

Search for Another Location

Airport:

Trip Planner

Search our weather history database for the weather conditions in past years. The results will help you decide how hot, cold, wet, or windy it might be!

Date:

Astronomy

Dec. 15, 2013 Rise Set
Actual Time 6:36 AM CST 4:46 PM CST
Civil Twilight 6:09 AM CST 5:13 PM CST
Nautical Twilight 5:39 AM CST 5:43 PM CST
Astronomical Twilight 5:10 AM CST 6:12 PM CST
Moon 3:46 PM CST (12/15) 4:56 AM CST (12/15)
Length of Visible Light 11h 03m
Length of Day
10h 10m
Waxing Gibbous, 98% of the Moon is Illuminated
Dec 15
Waxing Gibbous
Dec 17
Full
Dec 25
Last Quarter
Jan 1
New
Jan 7
First Quarter

Hourly Weather History & Observations

Time (CST) Temp. Windchill Dew Point Humidity Pressure Visibility Wind Dir Wind Speed Gust Speed Precip Events Conditions
12:49 AM 57.2 °F - 51.8 °F 82% 29.93 in 10.0 mi West 5.8 mph - N/A   Mostly Cloudy
12:58 AM 57.6 °F - 52.0 °F 82% 29.94 in 10.0 mi WNW 4.6 mph - 0.04 in   Mostly Cloudy
1:48 AM 57.2 °F - 53.6 °F 88% 29.94 in 10.0 mi NW 13.8 mph - N/A   Overcast
1:58 AM 55.4 °F - 51.8 °F 88% 29.98 in 10.0 mi NNW 11.5 mph 23.0 mph N/A   Overcast
1:59 AM 55.4 °F - 51.8 °F 88% 29.97 in 10.0 mi North 12.7 mph 23.0 mph N/A   Overcast
2:03 AM 53.6 °F - 50.0 °F 88% 29.97 in 10.0 mi NNW 15.0 mph - N/A Rain Light Rain
2:30 AM 51.8 °F - 48.2 °F 88% 29.97 in 10.0 mi NNW 15.0 mph - N/A   Overcast
2:35 AM 51.8 °F - 46.4 °F 82% 29.97 in 10.0 mi NNW 15.0 mph - N/A   Overcast
2:45 AM 51.8 °F - 48.2 °F 88% 29.98 in 10.0 mi NNW 12.7 mph - N/A   Overcast
2:58 AM 51.6 °F - 47.3 °F 85% 30.00 in 10.0 mi NNW 15.0 mph - 0.01 in   Overcast
3:03 AM 51.8 °F - 46.4 °F 82% 29.99 in 10.0 mi NNW 12.7 mph - N/A   Overcast
3:08 AM 51.8 °F - 46.4 °F 82% 29.99 in 10.0 mi NNW 13.8 mph - N/A   Overcast
3:23 AM 50.0 °F - 44.6 °F 82% 30.00 in 10.0 mi NNW 16.1 mph - N/A   Overcast
3:58 AM 49.3 °F - 41.4 °F 74% 30.02 in 10.0 mi NNW 16.1 mph 23.0 mph N/A   Overcast
4:33 AM 48.2 °F - 39.2 °F 71% 30.02 in 10.0 mi North 12.7 mph - N/A   Overcast
4:58 AM 46.9 °F - 39.2 °F 74% 30.03 in 10.0 mi NNW 13.8 mph - N/A   Overcast
5:58 AM 44.4 °F 37.2 °F 35.1 °F 70% 30.07 in 10.0 mi NNW 16.1 mph 25.3 mph N/A   Overcast
6:03 AM 44.6 °F 36.1 °F 33.8 °F 66% 30.07 in 10.0 mi NNW 21.9 mph 25.3 mph N/A   Overcast
6:08 AM 44.6 °F 37.4 °F 33.8 °F 66% 30.07 in 10.0 mi NNW 16.1 mph 25.3 mph N/A   Overcast
6:48 AM 42.8 °F 35.1 °F 32.0 °F 66% 30.10 in 10.0 mi NNW 16.1 mph 25.3 mph N/A   Overcast
6:58 AM 43.3 °F 35.0 °F 32.4 °F 65% 30.11 in 10.0 mi NNW 19.6 mph 26.5 mph N/A   Overcast
7:58 AM 42.4 °F 34.4 °F 31.8 °F 66% 30.13 in 10.0 mi NNW 17.3 mph - N/A   Overcast
8:03 AM 42.8 °F 36.2 °F 32.0 °F 66% 30.12 in 10.0 mi NNW 12.7 mph - N/A   Overcast
8:28 AM 42.8 °F 35.1 °F 32.0 °F 66% 30.14 in 10.0 mi North 16.1 mph 23.0 mph N/A   Overcast
8:58 AM 42.6 °F 34.6 °F 29.5 °F 60% 30.17 in 10.0 mi North 17.3 mph 21.9 mph N/A   Overcast
9:58 AM 43.3 °F 36.8 °F 29.8 °F 59% 30.17 in 10.0 mi North 12.7 mph - N/A   Overcast
10:58 AM 43.7 °F 36.9 °F 29.5 °F 57% 30.17 in 10.0 mi North 13.8 mph 19.6 mph N/A   Overcast
11:58 AM 45.0 °F 38.5 °F 29.3 °F 54% 30.16 in 10.0 mi North 13.8 mph 23.0 mph N/A   Overcast
12:58 PM 44.4 °F 37.9 °F 29.3 °F 55% 30.15 in 10.0 mi NNW 13.8 mph - N/A   Overcast
1:48 PM 46.4 °F 40.4 °F 28.4 °F 50% 30.14 in 10.0 mi North 13.8 mph - N/A   Scattered Clouds
1:53 PM 46.4 °F 40.1 °F 28.4 °F 50% 30.14 in 10.0 mi NW 15.0 mph - N/A   Scattered Clouds
1:58 PM 46.8 °F - 28.9 °F 50% 30.15 in 10.0 mi North 12.7 mph - N/A   Mostly Cloudy
2:23 PM 48.2 °F - 28.4 °F 46% 30.14 in 10.0 mi North 15.0 mph 21.9 mph N/A   Scattered Clouds
2:58 PM 46.0 °F 40.2 °F 29.1 °F 52% 30.15 in 10.0 mi North 12.7 mph - N/A   Clear
3:58 PM 46.9 °F - 28.8 °F 49% 30.16 in 10.0 mi North 10.4 mph 17.3 mph N/A   Clear
4:58 PM 43.5 °F 37.9 °F 28.9 °F 56% 30.19 in 10.0 mi North 10.4 mph - N/A   Clear
5:58 PM 39.6 °F 36.3 °F 29.7 °F 68% 30.21 in 10.0 mi North 4.6 mph - N/A   Clear
6:48 PM 39.2 °F 32.5 °F 28.4 °F 65% 30.23 in 10.0 mi NNW 10.4 mph - N/A   Mostly Cloudy
6:58 PM 40.3 °F 33.0 °F 28.8 °F 63% 30.24 in 10.0 mi NNW 12.7 mph - N/A   Mostly Cloudy
7:58 PM 40.1 °F 33.2 °F 27.7 °F 61% 30.25 in 10.0 mi North 11.5 mph - N/A   Overcast
8:28 PM 39.2 °F 33.0 °F 28.4 °F 65% 30.25 in 10.0 mi North 9.2 mph - N/A   Scattered Clouds
8:58 PM 37.9 °F 31.5 °F 27.5 °F 66% 30.27 in 10.0 mi North 9.2 mph - N/A   Clear
9:58 PM 35.2 °F 31.2 °F 27.1 °F 72% 30.27 in 10.0 mi North 4.6 mph - N/A   Clear
10:58 PM 33.8 °F 29.6 °F 27.1 °F 77% 30.27 in 10.0 mi NNW 4.6 mph - N/A   Clear
11:58 PM 31.8 °F 27.3 °F 26.4 °F 80% 30.28 in 10.0 mi NNW 4.6 mph - N/A   Clear